Location: Zagreb
(45.8000°N, 16.0000°E)
Time: 01:20:58
(UTC+01:00)

NO-84 - Pass Details

Date: 01 November 2020
Orbit: 323 x 458 km, 55.0° (Epoch: 25 November)

Event Time Altitude Azimuth Distance (km) Brightness Sun altitude
Exits shadow 05:27:13 12° 328° (NNW) 1,363 ? -12.5°
Maximum altitude 05:28:58 16° 3° (N) 1,127 ? -12.2°
Drops below altitude 10° 05:31:02 10° 44° (NE) 1,410 ? -11.9°
Sets 05:33:34 0° 68° (ENE) 2,228 ? -11.4°
